Miscellaneous Local Product
Issued by NWS North Platte, NE

Home | Current Version | Previous Version | Text Only | Print | Product List | Glossary On
Versions: 1 2 3 4 5 6 7 8 9 10 11 12 13 14 15 16 17 18 19 20 21 22 23 24 25 26 27 28 29 30 31 32 33 34 35 36 37 38 39 40 41 42 43 44 45 46 47 48 49 50
000
AXUS43 KLBF 301410
MISLBF


WESTERN AND NORTH CENTRAL NEBRASKA HOURLY WEATHER ROUNDUP
NATIONAL WEATHER SERVICE NORTH PLATTE NE
900 AM CDT SUN APR 30 2017

NOTE: "FAIR" INDICATES FEW OR NO CLOUDS BELOW 12,000 FEET WITH NO
SIGNIFICANT WEATHER AND/OR OBSTRUCTIONS TO VISIBILITY.

NOTE: STATIONS NOT REPORTING VARIABLES SUCH AS SKY/WEATHER OR
PRESSURE ARE PROVIDED BY RAWS AND APRS NETWORKS AND ARE NOT UNDER
NATIONAL WEATHER SERVICE QUALITY CONTROL.

...OBSERVATIONS IN AND NEAR THE EASTERN PANHANDLE OF NEBRASKA...

CITY           SKY/WX    TMP DP  RH WIND       PRES   REMARKS
PINE RIDGE     SUNNY     32  28  85 SW3       30.02F
CHADRON        SUNNY     35  28  75 CALM      30.03F
ALLIANCE       CLOUDY    35  26  69 N16       29.96F WCI  25
SIDNEY         CLOUDY    36  23  59 N21G30    29.94F WCI  25
CRESCENT LAKE    N/A     36  24  60 N16G25      N/A  WCI  26
$$

...OBSERVATIONS IN NORTHERN NEBRASKA AND FAR SOUTHERN SOUTH DAKOTA...

CITY           SKY/WX    TMP DP  RH WIND       PRES   REMARKS
WINNER         FAIR      40  28  62 N12       29.99F WCI  33
VALENTINE      CLOUDY    41  23  48 N12       29.96F
THEDFORD       CLOUDY    40  25  54 N16G29    29.86F WCI  32
AINSWORTH      CLOUDY    39  27  61 N18G28    29.89F WCI  30
O`NEILL        PTSUNNY   41  26  55 N20G25    29.88F
ORD            LGT RAIN  39  31  72 NE22G38   29.80F WCI  29
BROKEN BOW     CLOUDY    40  27  59 N26G38    29.78F WCI  29
VALENTINE NWR    N/A     38  24  56 N12G20      N/A  WCI  30
HALSEY           N/A     38  23  55 N12G21      N/A  WCI  30
BUTTE            N/A     40  28  61 N16         N/A  WCI  31
CHAMBERS         N/A     41  25  53 MISG        N/A
EWING            N/A     36  34  93 NE8G20      N/A  WCI  30
$$

...OBSERVATIONS IN SOUTHWEST NEBRASKA AND FAR NORTHEAST COLORADO...

CITY           SKY/WX    TMP DP  RH WIND       PRES   REMARKS
HOLYOKE        FAIR      37  28  70 N28       29.87F WCI  25
IMPERIAL       CLOUDY    38  23  55 N24G39    29.81F WCI  27
OGALLALA       CLOUDY    40  24  53 N21G30    29.86F WCI  31
NORTH PLATTE   CLOUDY    40  24  53 N22G32    29.79F WCI  30
MCCOOK         CLOUDY    36  31  82 N26G35    29.72R WCI  24
LEXINGTON      LGT SNOW  37  31  81 N31G38    29.71F WCI  23
STAPLETON        N/A     38  24  57 NE7G14      N/A  WCI  33
GOTHENBURG       N/A     38  26  62 N18         N/A  WCI  28
CALLAWAY         N/A     37  28  69 N22         N/A  WCI  26
$$

...OBSERVATIONS IN CENTRAL LINCOLN COUNTY AREA...

CITY           SKY/WX    TMP DP  RH WIND       PRES   REMARKS
N.P. AIRPORT   CLOUDY    40  24  53 N22G32    29.79F WCI  30
N.P. DOWNTOWN    N/A     40  25  54 N20G32      N/A  WCI  30
N.P. SOUTHEAST   N/A     39  22  51 N14G29      N/A  WCI  31
N.P. HILLCREST   N/A     40  24  54 N28G38      N/A  WCI  29
$$

...SOME OBSERVATIONS FROM AROUND THE REGION...

CITY           SKY/WX    TMP DP  RH WIND       PRES   REMARKS
DENVER         CLOUDY    31  19  61 NW16      29.98F WCI  20
LIMON          CLOUDY    30  22  72 N29G39    29.89R WCI  15
ASPEN          CLOUDY    25  21  85 CALM      30.13R
LARAMIE        SUNNY     22  17  81 CALM      30.07S
CASPER         SUNNY     35  23  61 SW14      30.07F WCI  26
CHEYENNE       CLOUDY    34  17  50 N30G38    29.98F WCI  20
SCOTTSBLUFF    CLOUDY    36  24  62 W9        30.00F WCI  29
GRAND ISLAND   RAIN      35  35 100 N29G37    29.70F FOG     WCI  22
OMAHA          LGT RAIN  40  35  83 NE22G32   29.76S VSB 1   WCI  30
SIOUX FALLS    LGT RAIN  38  38 100 NE13      29.97S WCI  30
PIERRE         CLOUDY    40  26  57 N10       30.03F WCI  33
RAPID CITY     SUNNY     45  22  40 N14       30.05F
BISMARCK       SUNNY     43  30  60 CALM      30.09F
KANSAS CITY    LGT RAIN  45  44  97 NE24G32   29.52F FOG
HILL CITY      LGT SNOW  33  33 100 N16       29.66R VSB 3/4 WCI  23
WICHITA        CLOUDY    47  45  93 S14       29.47F
DODGE CITY     LGT SNOW  33  32  96 N28G37    29.53F VSB 3/4 WCI  20
OKLAHOMA CITY  DRIZZLE   43  38  82 SW17G23   29.60R
DALLAS         CLOUDY    51  37  58 W16       29.81R
AMARILLO       SNOW      33  33 100 NW36G45   29.78R VSB 1/2 WCI  18
$$




USA.gov is the U.S. government's official web portal to all federal, state and local government web resources and services.